Regional Weather Roundup
Issued by NWS Upton, NY

Current Version | Previous Version | Text Only | Print | Product List | Glossary On
Versions: 1 2 3 4 5 6 7 8 9 10 11 12 13 14 15 16 17 18 19 20 21 22 23 24 25 26 27
000
ASUS41 KOKX 242309
RWROKX

REGIONAL WEATHER ROUNDUP
NATIONAL WEATHER SERVICE NEW YORK NY
700 PM EDT MON APR 24 2017

NOTE: "FAIR" INDICATES FEW OR NO CLOUDS BELOW 12,000 FEET WITH NO
SIGNIFICANT WEATHER AND/OR OBSTRUCTIONS TO VISIBILITY.

NYZ071-072-176-178-NJZ106-104-250000-
NEW YORK CITY METRO AREA

CITY           SKY/WX    TMP DP  RH WIND       PRES   REMARKS
Central Park   CLOUDY    57  43  59 VRB3      30.16S
Wall St Helipt CLOUDY    55  45  67 SE6       30.14F
Bronx Bot Gard   N/A     55  41  58 CALM      30.14F
LaGuardia APRT CLOUDY    58  44  60 NE7       30.13S
Kennedy INTL   CLOUDY    54  46  74 E9        30.15S
Breezy Point     N/A     50 N/A N/A E9          N/A
Newark/Liberty CLOUDY    56  39  53 E6        30.13F
Teterboro      CLOUDY    56  44  64 SW6       30.12S
$$

NYZ177-179-078>081-250000-
LONG ISLAND NEW YORK

CITY           SKY/WX    TMP DP  RH WIND       PRES   REMARKS
Jones Beach      N/A     50 N/A N/A E10G16      N/A
Matinecock PT    N/A     50 N/A N/A E8          N/A
Farmingdale    CLOUDY    53  42  66 E7        30.15S
MacArthur/ISP  CLOUDY    54  39  57 E7        30.15S
Shirley        CLOUDY    52  39  61 SE5       30.16S
Mt Sinai Harb    N/A    N/A N/A N/A S6          N/A
Westhampton    CLOUDY    50  44  80 E6        30.18S
East Hampton   CLOUDY    49  44  82 SE7       30.16S
Montauk          N/A     50  45  83 E3        30.18F
$$

NYZ052-065-067-250000-
HUDSON VALLEY

CITY           SKY/WX    TMP DP  RH WIND       PRES   REMARKS
White Plains   LGT RAIN  53  42  66 E7        30.14R
Larchmont Harb   N/A     50 N/A N/A N10         N/A
Croton O-T Hud   N/A     59 N/A N/A SE5         N/A
Newburgh       MOCLDY    63  39  42 VRB6      30.13S
Montgomery     CLOUDY    62  38  40 SE5       30.11S
Poughkeepsie   CLOUDY    63  35  35 SE5       30.11S
Albany         MOCLDY    70  35  27 NE9       30.08F
$$

NJZ001-105-106-008-010-013-015-019>022-104-250000-
NEW JERSEY

CITY           SKY/WX    TMP DP  RH WIND       PRES   REMARKS
Newark/Liberty CLOUDY    56  39  53 E6        30.13F
Teterboro      CLOUDY    56  44  64 SW6       30.12S
Caldwell       CLOUDY    57  43  59 E5        30.13F
Somerville     CLOUDY    57  43  59 VRB3      30.10F
Linden         CLOUDY    53  41  63 SE7       30.13F
Sussex         CLOUDY    62  33  33 E7        30.12S
Andover          N/A     58  39  49 E3        30.11S
Trenton        CLOUDY    55  39  54 E10       30.10S
Millville      CLOUDY    54  48  80 E16G26    30.05S
Atlantic City  CLOUDY    52  46  80 NE15G21   30.07S
Wrightstown    CLOUDY    54  42  62 NE9       30.07F
Toms River     CLOUDY    52  43  71 E6        30.11F
Belmar         CLOUDY    51  40  65 NE9       30.12F
$$

PAZ047>061-062-071-250000-
EASTERN PENNSYLVANIA

CITY           SKY/WX    TMP DP  RH WIND       PRES   REMARKS
Philadelphia   CLOUDY    57  39  51 NE14G24   30.08F
Allentown      LGT RAIN  56  42  59 E7        30.10S
Scranton       CLOUDY    64  33  31 SE7       30.08S
$$

CTZ002-004>006-009-010-012-RIZ004-006-007-MAZ004-011-015-250000-
SOUTHERN NEW ENGLAND
 IN CT

CITY           SKY/WX    TMP DP  RH WIND       PRES   REMARKS
Bradley INTL   CLOUDY    64  38  38 S13       30.13S
Hartford       PTCLDY    61  36  39 S7        30.15R
Danbury        CLOUDY    58  35  42 SE3       30.15R
Wtrbury/Oxford CLOUDY    57  30  35 S6        30.16S
Bridgeport     CLOUDY    53  45  74 E9        30.16R
Meriden        CLOUDY    59  36  42 S6        30.15S
New Haven      CLOUDY    51  44  77 E6        30.16S
Chester          N/A     52  41  66 VRB5      30.16S
Groton         CLOUDY    50  43  77 E5        30.17F
Wilimantic     CLOUDY    62  36  37 S5        30.17R

 IN RI

CITY           SKY/WX    TMP DP  RH WIND       PRES   REMARKS
Providence     CLOUDY    51  44  77 SE8       30.18S
Block Island   CLOUDY    48  45  89 E6        30.18F
Westerly       CLOUDY    50  45  83 E7        30.18F
 IN MA

CITY           SKY/WX    TMP DP  RH WIND       PRES   REMARKS
Boston         MOCLDY    61  46  57 S12       30.15R
Worcester      CLEAR     63  32  31 SE9       30.15R
Westfield      PTCLDY    66  44  45 S14       30.12R
Provincetown   CLOUDY    51  42  71 S9        30.20R
Nantucket      PTCLDY    48  42  80 E7        30.20S
$$

ANZ330-335-338-340-345-350-353-355-250000-
COASTAL MARINE OBSERVATIONS


STATION/POSITION TIME  SKY/WX   TEMP    WIND        PRES    VSBY  WAVE
                                AIR SEA DIR/SP/G                  HT/PER
                 (UTC)          (F)     (DEG/KT/KT) (MB)    (MI)  (FT/S)
NY HARB ENTRANCE 2150            49 50   80/ 10/ 12 1020.9          3/ 9
20 S FIRE ISLAND 2250            48 48   70/ 14/ 16 1019.8          3/10
GREAT SOUTH BAY  2215            52 56   90/ 12/ 14   N/A
23 SSW MONTAUK P 2150            47 46              1021.6          2/11
15 E BARNEGAT LI 2230               50                N/A           4/11
HUDSON CANYON    2150            49 47   80/ 14/ 17 1018.9          4/ 8
KINGS POINT      2224            51 48   40/  2/  3 1020.5
EXECUTION ROCKS  NOT AVBL
CENTRAL LI SOUND NOT AVBL
EASTERN LI SOUND NOT AVBL
ROBBINS REEF     2230            54     130/ 10/ 11 1020.7
$$


>>>>>>>>>>>>>>>>>>>>>>>>>>>> KEY <<<<<<<<<<<<<<<<<<<<<<<<<<<
>                                                          <
>     SKY/WX - Sky Condition/Present Weather               <
>     TMP    - Temperature in Fahrenheit                   <
>     DP     - Dew Point in Fahrenheit                     <
>     RH     - Relative Humidity in Percent                <
>     WIND   - Direction (from) and Speed in MPH           <
>     PRES   - Mean Sea Level Pressure (inches of Hg)      <
>     WCI    - Wind Chill Index                            <
>     VSB    - VISIBILITY IN MILES                         <
>     HX     - HEAT INDEX                                  <
>     TC     - TEMPERATURE IN CELSIUS                      <
>     VRB    - VARIABLE WIND DIRECTION                     <
>                                                          <
>>>>>>>>>>>>>>>>>>>>>>>>>>>> KEY <<<<<<<<<<<<<<<<<<<<<<<<<<<




USA.gov is the U.S. government's official web portal to all federal, state and local government web resources and services.